{"data":{"norad_id":66796,"epoch":"2026-09-19T22:16:32.256768Z","epoch_age_seconds":135940,"freshness":"FRESH","line1":"1 66796U 25278F   26262.92815112  .00018082  00000+0  66451-3 0  9998","line2":"2 66796  42.9987  82.5136 0001881 273.0658  86.9978 15.27603020 45089","mean_motion":15.2760302,"eccentricity":0.0001881,"inclination_deg":42.9987,"raan_deg":82.5136,"arg_perigee_deg":273.0658,"mean_anomaly_deg":86.9978,"bstar":0.00066451,"rev_number":4508,"period_min":94.26532817407,"perigee_km":481.6895906048,"apogee_km":484.27074288293,"semimajor_km":6861.1171667439,"source":"CELESTRAK","updated_at":"2026-09-21T09:00:36.014361Z"}}